sat.trackr.live / text

‹ back to catalog

STARLINK-2623

NORAD 48368 · 2021-038R

PAYLOAD ACTIVE UNKNOWN

§ Identity

Operator
Country
US
Launch date
2021-05-04
Launch site
AFETR
Launch vehicle
Mass (kg)
RCS (m²)

Purposes: comms

External: N2YO · Heavens-Above · Gunter

§ Orbital elements

Epoch: 2026-05-24T22:52:04.715040Z

Period
94.11 min
Inclination
53.1612°
Eccentricity
0.0001160
Mean motion
15.30201867 rev/d
Perigee alt
474.4 km
Apogee alt
476.0 km
Semi-major
6,853.3 km
B*
1.3170e-4
RAAN
353.5506°
Arg perigee
104.1184°
Mean anomaly
255.9946°
Rev number
27,890

§ Raw data

STARLINK-26231 48368U 21038R   26144.95283235  .00003544  00000+0  13170-3 0  99972 48368  53.1612 353.5506 0001160 104.1184 255.9946 15.30201867278902

JSON: /api/v1/satellites/48368 · /tle

For live sub-satellite position, see the globe view (requires WebGL).

§ Visibility from observer

Set your observer location to see the next 7 days of passes ≥ 10°. The values pass through the URL so the page stays shareable.

No JS? Fill the form by hand. The geolocation button needs JavaScript.